Time,TemperatureF,DewpointF,PressureIn,WindDirection,WindDirectionDegrees,WindSpeedMPH,WindSpeedGustMPH,Humidity,HourlyPrecipIn,Conditions,Clouds,dailyrainin,SoftwareType,DateUTC
2013-05-07 00:00:00,36.9,33.0,30.06,SW,236,2.0,-999.0,84,-99.99,,,0.28,weatherlink.com 1.10,2013-05-07 06:00:00,
2013-05-07 00:15:00,36.5,33.0,30.06,SW,236,0.0,-999.0,86,-99.99,,,0.29,weatherlink.com 1.10,2013-05-07 06:15:00,
2013-05-07 00:30:00,36.0,33.0,30.05,SW,236,0.0,-999.0,87,-99.99,,,0.29,weatherlink.com 1.10,2013-05-07 06:30:00,
2013-05-07 00:45:00,35.3,32.0,30.07,SW,236,0.0,-999.0,87,-99.99,,,0.00,weatherlink.com 1.10,2013-05-07 06:45:00,
2013-05-07 01:00:00,34.6,31.0,30.00,SW,236,0.0,-999.0,87,-99.99,,,0.00,weatherlink.com 1.10,2013-05-07 07:00:00,
2013-05-07 01:16:00,34.3,31.0,30.01,SW,236,0.0,-999.0,88,-99.99,,,0.00,weatherlink.com 1.10,2013-05-07 07:16:00,
2013-05-07 01:30:00,33.4,30.0,30.01,SW,236,0.0,-999.0,88,-99.99,,,0.00,weatherlink.com 1.10,2013-05-07 07:30:00,
2013-05-07 01:45:00,33.2,30.0,30.01,SW,236,0.0,-999.0,89,-99.99,,,0.00,weatherlink.com 1.10,2013-05-07 07:45:00,
2013-05-07 02:00:00,32.9,30.0,30.02,SW,236,0.0,-999.0,90,-99.99,,,0.00,weatherlink.com 1.10,2013-05-07 08:00:00,
2013-05-07 02:15:00,32.8,30.0,30.03,SW,236,0.0,-999.0,89,-99.99,,,0.00,weatherlink.com 1.10,2013-05-07 08:15:00,
2013-05-07 02:31:00,33.5,31.0,30.03,South,189,0.0,-999.0,90,-99.99,,,0.00,weatherlink.com 1.10,2013-05-07 08:31:00,
2013-05-07 02:46:00,33.8,31.0,30.01,South,173,0.0,-999.0,90,-99.99,,,0.00,weatherlink.com 1.10,2013-05-07 08:46:00,
2013-05-07 03:01:00,34.4,32.0,30.05,SSW,213,3.0,-999.0,89,-99.99,,,0.00,weatherlink.com 1.10,2013-05-07 09:01:00,
2013-05-07 03:16:00,35.0,32.0,30.02,SSW,207,1.0,-999.0,88,-99.99,,,0.00,weatherlink.com 1.10,2013-05-07 09:16:00,
2013-05-07 03:31:00,35.2,32.0,30.02,SSW,198,2.0,-999.0,89,-99.99,,,0.00,weatherlink.com 1.10,2013-05-07 09:31:00,
2013-05-07 03:46:00,35.2,32.0,30.02,WSW,241,2.0,-999.0,88,-99.99,,,0.00,weatherlink.com 1.10,2013-05-07 09:46:00,
2013-05-07 04:01:00,35.2,32.0,29.97,SW,224,0.0,-999.0,88,-99.99,,,0.00,weatherlink.com 1.10,2013-05-07 10:01:00,
2013-05-07 04:16:00,35.0,32.0,29.97,South,186,2.0,-999.0,88,-99.99,,,0.00,weatherlink.com 1.10,2013-05-07 10:16:00,
2013-05-07 04:31:00,35.0,32.0,29.97,South,175,2.0,-999.0,87,-99.99,,,0.00,weatherlink.com 1.10,2013-05-07 10:31:00,
2013-05-07 04:46:00,34.9,31.0,29.96,SSE,166,0.0,-999.0,87,-99.99,,,0.00,weatherlink.com 1.10,2013-05-07 10:46:00,
2013-05-07 05:01:00,34.6,31.0,29.99,SSE,166,0.0,-999.0,87,-99.99,,,0.00,weatherlink.com 1.10,2013-05-07 11:01:00,
2013-05-07 05:16:00,34.4,31.0,29.99,SSE,165,0.0,-999.0,87,-99.99,,,0.00,weatherlink.com 1.10,2013-05-07 11:16:00,
2013-05-07 05:31:00,34.0,31.0,29.99,SSE,165,0.0,-999.0,87,-99.99,,,0.00,weatherlink.com 1.10,2013-05-07 11:31:00,
2013-05-07 05:46:00,33.4,30.0,29.99,SSE,165,0.0,-999.0,87,-99.99,,,0.00,weatherlink.com 1.10,2013-05-07 11:46:00,
2013-05-07 06:01:00,32.9,30.0,30.01,SSE,165,0.0,-999.0,87,-99.99,,,0.00,weatherlink.com 1.10,2013-05-07 12:01:00,
2013-05-07 06:16:00,32.8,29.0,30.01,SSE,165,0.0,-999.0,87,-99.99,,,0.00,weatherlink.com 1.10,2013-05-07 12:16:00,
2013-05-07 06:31:00,32.5,29.0,30.01,SSE,165,0.0,-999.0,87,-99.99,,,0.00,weatherlink.com 1.10,2013-05-07 12:31:00,
2013-05-07 06:46:00,32.1,29.0,30.02,SSE,165,0.0,-999.0,87,-99.99,,,0.00,weatherlink.com 1.10,2013-05-07 12:46:00,
2013-05-07 07:01:00,31.6,28.0,30.06,SSE,165,0.0,-999.0,87,-99.99,,,0.00,weatherlink.com 1.10,2013-05-07 13:01:00,
2013-05-07 07:16:00,32.2,29.0,30.06,SSE,165,0.0,-999.0,88,-99.99,,,0.00,weatherlink.com 1.10,2013-05-07 13:16:00,
2013-05-07 07:31:00,32.7,30.0,30.05,SSE,165,0.0,-999.0,89,-99.99,,,0.00,weatherlink.com 1.10,2013-05-07 13:31:00,
2013-05-07 07:46:00,34.0,31.0,30.05,SSE,165,0.0,-999.0,90,-99.99,,,0.00,weatherlink.com 1.10,2013-05-07 13:46:00,
2013-05-07 08:01:00,35.0,32.0,30.04,SSE,165,0.0,-999.0,87,-99.99,,,0.00,weatherlink.com 1.10,2013-05-07 14:01:00,
2013-05-07 08:16:00,36.3,31.0,30.02,SSE,165,0.0,-999.0,82,-99.99,,,0.00,weatherlink.com 1.10,2013-05-07 14:16:00,
2013-05-07 08:31:00,38.3,33.0,30.00,SSE,165,0.0,-999.0,82,-99.99,,,0.00,weatherlink.com 1.10,2013-05-07 14:31:00,
2013-05-07 08:46:00,40.1,34.0,29.98,SSE,165,0.0,-999.0,80,-99.99,,,0.00,weatherlink.com 1.10,2013-05-07 14:46:00,
2013-05-07 09:01:00,42.9,34.0,29.97,SSE,165,0.0,-999.0,72,-99.99,,,0.00,weatherlink.com 1.10,2013-05-07 15:01:00,
2013-05-07 09:16:00,44.1,29.0,29.96,South,175,2.0,-999.0,56,-99.99,,,0.00,weatherlink.com 1.10,2013-05-07 15:16:00,
2013-05-07 09:31:00,45.5,27.0,29.94,SSW,198,2.0,-999.0,49,-99.99,,,0.00,weatherlink.com 1.10,2013-05-07 15:31:00,
2013-05-07 09:46:00,47.0,31.0,29.91,SW,229,5.0,-999.0,54,-99.99,,,0.00,weatherlink.com 1.10,2013-05-07 15:46:00,
2013-05-07 10:01:00,47.1,25.0,29.94,SW,233,9.0,-999.0,43,-99.99,,,0.00,weatherlink.com 1.10,2013-05-07 16:01:00,
2013-05-07 10:16:00,47.6,28.0,29.92,WSW,244,4.0,-999.0,46,-99.99,,,0.00,weatherlink.com 1.10,2013-05-07 16:16:00,
2013-05-07 10:31:00,48.6,26.0,29.92,South,172,2.0,-999.0,41,-99.99,,,0.00,weatherlink.com 1.10,2013-05-07 16:31:00,
2013-05-07 10:46:00,48.9,25.0,29.92,South,175,2.0,-999.0,40,-99.99,,,0.00,weatherlink.com 1.10,2013-05-07 16:46:00,
2013-05-07 11:01:00,50.4,28.0,29.90,South,190,4.0,-999.0,42,-99.99,,,0.00,weatherlink.com 1.10,2013-05-07 17:01:00,
2013-05-07 11:16:00,50.2,28.0,29.90,West,264,17.0,-999.0,42,-99.99,,,0.00,weatherlink.com 1.10,2013-05-07 17:16:00,
2013-05-07 11:31:00,50.8,22.0,29.89,SW,232,0.0,-999.0,33,-99.99,,,0.00,weatherlink.com 1.10,2013-05-07 17:31:00,
2013-05-07 11:46:00,52.8,29.0,29.87,SSE,167,2.0,-999.0,40,-99.99,,,0.00,weatherlink.com 1.10,2013-05-07 17:46:00,
2013-05-07 12:01:00,53.3,29.0,29.88,ENE,72,4.0,-999.0,40,-99.99,,,0.00,weatherlink.com 1.10,2013-05-07 18:01:00,
2013-05-07 12:17:00,49.9,30.0,29.92,SSE,161,10.0,-999.0,46,-99.99,,,0.00,weatherlink.com 1.10,2013-05-07 18:17:00,
2013-05-07 12:32:00,51.9,29.0,29.90,South,175,0.0,-999.0,41,-99.99,,,0.00,weatherlink.com 1.10,2013-05-07 18:32:00,
2013-05-07 12:47:00,51.9,29.0,29.91,South,177,7.0,-999.0,42,-99.99,,,0.00,weatherlink.com 1.10,2013-05-07 18:47:00,
2013-05-07 13:02:00,52.3,29.0,29.92,South,185,4.0,-999.0,41,-99.99,,,0.00,weatherlink.com 1.10,2013-05-07 19:02:00,
2013-05-07 13:17:00,51.7,27.0,29.92,WSW,245,12.0,-999.0,39,-99.99,,,0.00,weatherlink.com 1.10,2013-05-07 19:17:00,
2013-05-07 13:32:00,52.8,27.0,29.89,SW,235,10.0,-999.0,37,-99.99,,,0.00,weatherlink.com 1.10,2013-05-07 19:32:00,
2013-05-07 13:47:00,51.7,28.0,29.92,WSW,241,13.0,-999.0,40,-99.99,,,0.00,weatherlink.com 1.10,2013-05-07 19:47:00,
2013-05-07 14:02:00,51.9,27.0,29.90,SW,229,8.0,-999.0,39,-99.99,,,0.00,weatherlink.com 1.10,2013-05-07 20:02:00,
2013-05-07 14:17:00,54.2,25.0,29.87,South,172,3.0,-999.0,32,-99.99,,,0.00,weatherlink.com 1.10,2013-05-07 20:17:00,
2013-05-07 14:32:00,55.0,25.0,29.87,South,182,2.0,-999.0,32,-99.99,,,0.00,weatherlink.com 1.10,2013-05-07 20:32:00,
2013-05-07 14:47:00,55.4,23.0,29.84,SW,217,3.0,-999.0,28,-99.99,,,0.00,weatherlink.com 1.10,2013-05-07 20:47:00,
2013-05-07 15:02:00,54.7,24.0,29.83,South,179,3.0,-999.0,31,-99.99,,,0.00,weatherlink.com 1.10,2013-05-07 21:02:00,
2013-05-07 15:17:00,55.9,22.0,29.81,WSW,246,5.0,-999.0,27,-99.99,,,0.00,weatherlink.com 1.10,2013-05-07 21:17:00,
2013-05-07 15:32:00,55.7,22.0,29.83,SW,225,5.0,-999.0,27,-99.99,,,0.00,weatherlink.com 1.10,2013-05-07 21:32:00,
2013-05-07 15:47:00,54.5,23.0,29.85,SSW,209,10.0,-999.0,30,-99.99,,,0.00,weatherlink.com 1.10,2013-05-07 21:47:00,
2013-05-07 16:02:00,56.3,26.0,29.82,WSW,254,10.0,-999.0,31,-99.99,,,0.00,weatherlink.com 1.10,2013-05-07 22:02:00,
2013-05-07 16:17:00,54.8,22.0,29.83,WSW,237,13.0,-999.0,28,-99.99,,,0.00,weatherlink.com 1.10,2013-05-07 22:17:00,
2013-05-07 16:32:00,53.5,23.0,29.84,South,180,4.0,-999.0,30,-99.99,,,0.00,weatherlink.com 1.10,2013-05-07 22:32:00,
2013-05-07 16:47:00,52.8,25.0,29.84,SW,232,5.0,-999.0,34,-99.99,,,0.00,weatherlink.com 1.10,2013-05-07 22:47:00,
2013-05-07 17:02:00,53.2,24.0,29.86,South,175,4.0,-999.0,32,-99.99,,,0.00,weatherlink.com 1.10,2013-05-07 23:02:00,
2013-05-07 17:17:00,52.3,21.0,29.86,WSW,244,9.0,-999.0,29,-99.99,,,0.00,weatherlink.com 1.10,2013-05-07 23:17:00,
2013-05-07 17:32:00,52.9,20.0,29.86,WSW,242,5.0,-999.0,28,-99.99,,,0.00,weatherlink.com 1.10,2013-05-07 23:32:00,
2013-05-07 17:47:00,54.2,20.0,29.84,West,280,7.0,-999.0,26,-99.99,,,0.00,weatherlink.com 1.10,2013-05-07 23:47:00,
2013-05-07 18:02:00,55.6,20.0,29.83,SW,232,6.0,-999.0,25,-99.99,,,0.00,weatherlink.com 1.10,2013-05-08 00:02:00,
2013-05-07 18:17:00,55.0,20.0,29.85,WSW,247,5.0,-999.0,25,-99.99,,,0.00,weatherlink.com 1.10,2013-05-08 00:17:00,
2013-05-07 18:32:00,54.5,16.0,29.85,WSW,250,7.0,-999.0,22,-99.99,,,0.00,weatherlink.com 1.10,2013-05-08 00:32:00,
2013-05-07 18:47:00,55.0,18.0,29.85,SW,234,11.0,-999.0,23,-99.99,,,0.00,weatherlink.com 1.10,2013-05-08 00:47:00,
2013-05-07 19:02:00,54.1,16.0,29.83,SW,227,3.0,-999.0,22,-99.99,,,0.00,weatherlink.com 1.10,2013-05-08 01:02:00,
2013-05-07 19:17:00,52.2,14.0,29.85,SW,221,3.0,-999.0,22,-99.99,,,0.00,weatherlink.com 1.10,2013-05-08 01:17:00,
2013-05-07 19:32:00,51.4,16.0,29.85,SW,233,2.0,-999.0,24,-99.99,,,0.00,weatherlink.com 1.10,2013-05-08 01:32:00,
2013-05-07 19:47:00,51.0,16.0,29.87,WSW,241,1.0,-999.0,25,-99.99,,,0.00,weatherlink.com 1.10,2013-05-08 01:47:00,
2013-05-07 20:02:00,50.1,14.0,29.81,SW,227,0.0,-999.0,24,-99.99,,,0.00,weatherlink.com 1.10,2013-05-08 02:02:00,
2013-05-07 20:17:00,49.1,15.0,29.83,South,174,0.0,-999.0,26,-99.99,,,0.00,weatherlink.com 1.10,2013-05-08 02:17:00,
2013-05-07 20:32:00,47.9,14.0,29.84,South,174,0.0,-999.0,26,-99.99,,,0.00,weatherlink.com 1.10,2013-05-08 02:32:00,
2013-05-07 20:47:00,46.0,14.0,29.86,South,174,0.0,-999.0,27,-99.99,,,0.00,weatherlink.com 1.10,2013-05-08 02:47:00,
2013-05-07 21:02:00,44.8,15.0,29.82,SSE,167,0.0,-999.0,30,-99.99,,,0.00,weatherlink.com 1.10,2013-05-08 03:02:00,
2013-05-07 21:17:00,42.9,17.0,29.84,SSE,167,0.0,-999.0,35,-99.99,,,0.00,weatherlink.com 1.10,2013-05-08 03:17:00,
2013-05-07 21:32:00,41.9,17.0,29.86,SSE,167,0.0,-999.0,36,-99.99,,,0.00,weatherlink.com 1.10,2013-05-08 03:32:00,
2013-05-07 21:47:00,41.1,18.0,29.86,SSE,167,0.0,-999.0,40,-99.99,,,0.00,weatherlink.com 1.10,2013-05-08 03:47:00,
2013-05-07 22:02:00,39.8,19.0,29.87,South,169,3.0,-999.0,43,-99.99,,,0.00,weatherlink.com 1.10,2013-05-08 04:02:00,
2013-05-07 22:17:00,39.3,20.0,29.89,South,169,0.0,-999.0,47,-99.99,,,0.00,weatherlink.com 1.10,2013-05-08 04:17:00,
2013-05-07 22:32:00,39.6,21.0,29.88,South,169,0.0,-999.0,48,-99.99,,,0.00,weatherlink.com 1.10,2013-05-08 04:32:00,
2013-05-07 22:47:00,38.9,21.0,29.88,South,169,0.0,-999.0,48,-99.99,,,0.00,weatherlink.com 1.10,2013-05-08 04:47:00,
2013-05-07 23:02:00,38.9,21.0,29.85,South,169,0.0,-999.0,49,-99.99,,,0.00,weatherlink.com 1.10,2013-05-08 05:02:00,
2013-05-07 23:17:00,38.9,22.0,29.86,South,169,0.0,-999.0,51,-99.99,,,0.00,weatherlink.com 1.10,2013-05-08 05:17:00,
2013-05-07 23:32:00,39.1,22.0,29.85,South,169,0.0,-999.0,50,-99.99,,,0.00,weatherlink.com 1.10,2013-05-08 05:32:00,
2013-05-07 23:47:00,38.9,22.0,29.86,South,169,0.0,-999.0,51,-99.99,,,0.00,weatherlink.com 1.10,2013-05-08 05:47:00,